This is the latest recevied weather packets stored in our database for station/object PP5FMM-13. If no packets are shown the sender has not sent any weather packets the latest 10 day(s).
| Time | Temp. | Humidity | Pressure | Rain* | Wind** | Luminosity | Snow |
|---|---|---|---|---|---|---|---|
| 1777318827 | 26.11° C | 80% | 1012.9 hPa | - | - | - | - |
| 1777318526 | 25.56° C | 81% | 1012.9 hPa | - | - | - | - |
| 1777318227 | 26.67° C | 78% | 1012.8 hPa | - | - | - | - |
| 1777317930 | 26.11° C | 80% | 1012.8 hPa | - | - | - | - |
| 1777317627 | 26.67° C | 78% | 1012.7 hPa | - | - | - | - |
| 1777317326 | 26.11° C | 80% | 1012.5 hPa | - | - | - | - |
| 1777317026 | 26.67° C | 79% | 1012.4 hPa | - | - | - | - |
| 1777316726 | 26.67° C | 77% | 1012.4 hPa | - | - | - | - |
| 1777316426 | 27.78° C | 76% | 1012.3 hPa | - | - | - | - |
| 1777316127 | 28.89° C | 81% | 1012.2 hPa | - | - | - | - |
| 1777315826 | 28.89° C | 82% | 1012.1 hPa | - | - | - | - |
| 1777315526 | 28.33° C | 77% | 1012.1 hPa | - | - | - | - |
| 1777315227 | 27.78° C | 76% | 1012.3 hPa | - | - | - | - |
| 1777314926 | 27.78° C | 76% | 1012.1 hPa | - | - | - | - |
| 1777314626 | 27.78° C | 77% | 1012 hPa | - | - | - | - |
| 1777314326 | 27.78° C | 75% | 1012 hPa | - | - | - | - |
| 1777314027 | 28.33° C | 74% | 1011.9 hPa | - | - | - | - |
| 1777313726 | 28.33° C | 73% | 1011.8 hPa | - | - | - | - |
| 1777313426 | 28.33° C | 72% | 1011.7 hPa | - | - | - | - |
| 1777313126 | 28.89° C | 67% | 1011.6 hPa | - | - | - | - |
| 1777312827 | 28.89° C | 67% | 1011.6 hPa | - | - | - | - |
| 1777312526 | 28.89° C | 67% | 1011.4 hPa | - | - | - | - |
| 1777312226 | 28.89° C | 67% | 1011.5 hPa | - | - | - | - |
| 1777311926 | 29.44° C | 67% | 1011.5 hPa | - | - | - | - |
| 1777311626 | 28.33° C | 65% | 1011.5 hPa | - | - | - | - |
* Rain since midnight (hover to see other rain measurements)
** Current wind speed in m/s (hover to see current wind gust speed)